TimeCDT,TemperatureF,Dew PointF,Humidity,Sea Level PressureIn,VisibilityMPH,Wind Direction,Wind SpeedMPH,Gust SpeedMPH,PrecipitationIn,Events,Conditions,WindDirDegrees,DateUTC
12:17 AM,26.6,21.2,80,30.05,10.0,ENE,6.9,-,N/A,,Clear,70,2013-03-23 05:17:00
12:37 AM,26.6,21.2,80,30.07,10.0,Calm,Calm,-,N/A,,Clear,0,2013-03-23 05:37:00
12:57 AM,26.6,21.2,80,30.09,10.0,Calm,Calm,-,N/A,,Mostly Cloudy,0,2013-03-23 05:57:00
1:17 AM,26.6,21.2,80,30.07,10.0,NNE,3.5,-,N/A,,Overcast,20,2013-03-23 06:17:00
1:37 AM,26.6,21.2,80,30.07,10.0,NNE,3.5,-,N/A,,Overcast,30,2013-03-23 06:37:00
1:57 AM,26.6,21.2,80,30.09,10.0,NNE,3.5,-,N/A,,Overcast,30,2013-03-23 06:57:00
2:17 AM,26.6,21.2,80,30.07,10.0,NE,4.6,-,N/A,,Overcast,50,2013-03-23 07:17:00
2:37 AM,26.6,21.2,80,30.09,10.0,ENE,3.5,-,N/A,,Overcast,60,2013-03-23 07:37:00
2:57 AM,26.6,21.2,80,30.11,10.0,Calm,Calm,-,N/A,,Overcast,0,2013-03-23 07:57:00
3:17 AM,28.4,21.2,74,30.10,10.0,NE,4.6,-,N/A,,Overcast,40,2013-03-23 08:17:00
3:37 AM,26.6,21.2,80,30.09,10.0,NE,5.8,-,N/A,,Overcast,40,2013-03-23 08:37:00
3:57 AM,28.4,21.2,74,30.08,10.0,ENE,5.8,-,N/A,,Overcast,60,2013-03-23 08:57:00
4:17 AM,28.4,23.0,80,30.08,10.0,NE,3.5,-,N/A,,Overcast,50,2013-03-23 09:17:00
4:37 AM,28.4,23.0,80,30.09,10.0,Calm,Calm,-,N/A,,Overcast,0,2013-03-23 09:37:00
4:57 AM,28.4,23.0,80,30.07,10.0,NE,5.8,-,N/A,,Overcast,40,2013-03-23 09:57:00
5:17 AM,28.4,23.0,80,30.07,10.0,NNE,4.6,-,N/A,,Overcast,30,2013-03-23 10:17:00
5:37 AM,28.4,23.0,80,30.08,10.0,NE,3.5,-,N/A,,Overcast,40,2013-03-23 10:37:00
5:57 AM,28.4,23.0,80,30.09,10.0,Calm,Calm,-,N/A,,Overcast,0,2013-03-23 10:57:00
6:17 AM,28.4,23.0,80,30.10,10.0,Calm,Calm,-,N/A,,Overcast,0,2013-03-23 11:17:00
6:37 AM,28.4,21.2,74,30.10,10.0,Calm,Calm,-,N/A,,Overcast,0,2013-03-23 11:37:00
6:57 AM,28.4,21.2,74,30.11,10.0,Calm,Calm,-,N/A,,Overcast,0,2013-03-23 11:57:00
7:17 AM,28.4,23.0,80,30.11,10.0,NE,3.5,-,N/A,,Overcast,40,2013-03-23 12:17:00
7:37 AM,28.4,23.0,80,30.10,10.0,NNE,4.6,-,N/A,,Overcast,30,2013-03-23 12:37:00
7:57 AM,28.4,23.0,80,30.11,10.0,NNE,4.6,-,N/A,,Overcast,30,2013-03-23 12:57:00
8:17 AM,28.4,23.0,80,30.12,10.0,NNE,3.5,-,N/A,,Overcast,30,2013-03-23 13:17:00
8:37 AM,28.4,23.0,80,30.12,10.0,ENE,4.6,-,N/A,,Overcast,60,2013-03-23 13:37:00
8:57 AM,28.4,23.0,80,30.13,10.0,ENE,5.8,-,N/A,,Overcast,60,2013-03-23 13:57:00
9:17 AM,26.6,23.0,86,30.13,5.0,NE,5.8,-,N/A,Snow,Light Snow,50,2013-03-23 14:17:00
9:37 AM,26.6,23.0,86,30.12,7.0,NE,5.8,-,N/A,Snow,Light Snow,40,2013-03-23 14:37:00
9:57 AM,28.4,21.2,74,30.14,7.0,ENE,4.6,-,N/A,,Overcast,60,2013-03-23 14:57:00
10:17 AM,28.4,21.2,74,30.14,10.0,ENE,4.6,-,N/A,,Overcast,60,2013-03-23 15:17:00
10:37 AM,28.4,21.2,74,30.14,10.0,Calm,Calm,-,N/A,,Overcast,0,2013-03-23 15:37:00
10:57 AM,28.4,23.0,80,30.14,7.0,NE,3.5,-,N/A,,Overcast,50,2013-03-23 15:57:00
11:17 AM,30.2,23.0,75,30.14,10.0,ENE,3.5,-,N/A,,Overcast,60,2013-03-23 16:17:00
11:37 AM,30.2,21.2,69,30.14,10.0,NE,3.5,-,N/A,Snow,Light Snow,50,2013-03-23 16:37:00
11:57 AM,30.2,21.2,69,30.13,10.0,North,4.6,-,N/A,,Clear,10,2013-03-23 16:57:00
12:17 PM,30.2,21.2,69,30.14,10.0,NE,5.8,-,N/A,,Scattered Clouds,40,2013-03-23 17:17:00
12:37 PM,30.2,21.2,69,30.14,10.0,Calm,Calm,-,N/A,,Mostly Cloudy,0,2013-03-23 17:37:00
12:57 PM,32.0,21.2,64,30.13,10.0,North,3.5,-,N/A,,Mostly Cloudy,360,2013-03-23 17:57:00
1:17 PM,32.0,21.2,64,30.13,10.0,Calm,Calm,-,N/A,,Overcast,0,2013-03-23 18:17:00
1:37 PM,32.0,21.2,64,30.13,10.0,Calm,Calm,-,N/A,,Overcast,0,2013-03-23 18:37:00
1:57 PM,32.0,21.2,64,30.12,10.0,NNE,3.5,-,N/A,,Overcast,20,2013-03-23 18:57:00
2:17 PM,32.0,21.2,64,30.11,10.0,NE,5.8,-,N/A,,Overcast,40,2013-03-23 19:17:00
2:37 PM,32.0,21.2,64,30.11,10.0,NNE,9.2,-,N/A,,Overcast,30,2013-03-23 19:37:00
2:57 PM,32.0,21.2,64,30.11,10.0,NNE,6.9,-,N/A,,Overcast,20,2013-03-23 19:57:00
3:16 PM,32.0,21.2,64,30.11,10.0,North,6.9,-,N/A,,Overcast,10,2013-03-23 20:16:00
3:37 PM,32.0,21.2,64,30.11,10.0,North,6.9,-,N/A,,Overcast,350,2013-03-23 20:37:00
3:57 PM,32.0,23.0,69,30.11,10.0,North,6.9,-,N/A,,Overcast,350,2013-03-23 20:57:00
4:17 PM,32.0,23.0,69,30.10,4.0,North,10.4,-,N/A,Snow,Light Snow,350,2013-03-23 21:17:00
4:37 PM,32.0,23.0,69,30.10,10.0,North,9.2,-,N/A,,Overcast,360,2013-03-23 21:37:00
4:57 PM,32.0,23.0,69,30.09,10.0,NNW,10.4,-,N/A,,Overcast,340,2013-03-23 21:57:00
5:17 PM,32.0,23.0,69,30.10,10.0,North,11.5,-,N/A,,Mostly Cloudy,350,2013-03-23 22:17:00
5:37 PM,32.0,23.0,69,30.10,10.0,North,8.1,-,N/A,,Overcast,360,2013-03-23 22:37:00
5:57 PM,32.0,23.0,69,30.10,10.0,North,10.4,-,N/A,,Overcast,360,2013-03-23 22:57:00
6:17 PM,32.0,21.2,64,30.11,10.0,NNW,12.7,-,N/A,,Mostly Cloudy,340,2013-03-23 23:17:00
6:37 PM,32.0,23.0,69,30.11,10.0,NNW,11.5,-,N/A,,Mostly Cloudy,340,2013-03-23 23:37:00
6:57 PM,32.0,21.2,64,30.11,10.0,North,13.8,-,N/A,,Mostly Cloudy,360,2013-03-23 23:57:00
7:17 PM,32.0,21.2,64,30.11,10.0,North,10.4,-,N/A,,Overcast,350,2013-03-24 00:17:00
7:37 PM,30.2,21.2,69,30.11,10.0,NNW,11.5,-,N/A,,Overcast,340,2013-03-24 00:37:00
7:57 PM,30.2,23.0,75,30.12,10.0,North,10.4,16.1,N/A,,Overcast,350,2013-03-24 00:57:00
8:17 PM,30.2,21.2,69,30.12,10.0,North,9.2,-,N/A,,Overcast,360,2013-03-24 01:17:00
8:37 PM,30.2,21.2,69,30.13,10.0,North,11.5,-,N/A,,Overcast,350,2013-03-24 01:37:00
8:57 PM,28.4,21.2,74,30.13,10.0,North,6.9,-,N/A,,Overcast,10,2013-03-24 01:57:00
9:17 PM,28.4,21.2,74,30.13,10.0,North,9.2,-,N/A,,Overcast,360,2013-03-24 02:17:00
9:37 PM,28.4,21.2,74,30.14,10.0,North,8.1,17.3,N/A,,Mostly Cloudy,360,2013-03-24 02:37:00
9:57 PM,28.4,21.2,74,30.14,10.0,North,8.1,-,N/A,,Overcast,10,2013-03-24 02:57:00
10:17 PM,28.4,21.2,74,30.14,10.0,North,8.1,-,N/A,,Overcast,360,2013-03-24 03:17:00
10:37 PM,28.4,21.2,74,30.14,10.0,NNE,9.2,-,N/A,,Overcast,20,2013-03-24 03:37:00
10:57 PM,28.4,21.2,74,30.14,10.0,North,12.7,-,N/A,,Overcast,350,2013-03-24 03:57:00
11:17 PM,28.4,19.4,69,30.14,10.0,North,11.5,-,N/A,,Overcast,10,2013-03-24 04:17:00
11:37 PM,28.4,19.4,69,30.14,10.0,North,12.7,-,N/A,,Overcast,360,2013-03-24 04:37:00
11:57 PM,28.4,21.2,74,30.13,10.0,North,9.2,-,N/A,,Overcast,10,2013-03-24 04:57:00